Lid_Strength_Index
19 19 19 19 18 19 19 19 20 23 22 20 19 17 17 17 17 18 18 16 14 13 12 11 10 10 9 8 7 6 5 5 4 3 2 1 -1 -1
19 19 19 19 20 20 20 20 20 22 24 20 20 19 18 19 18 19 18 17 16 14 13 13 12 11 10 9 8 7 7 6 6 5 3 2 1 0
20 20 21 20 21 21 21 21 21 21 24 21 20 20 20 20 19 19 18 19 18 16 14 13 13 12 11 10 9 9 9 8 7 6 5 4 3 2
21 21 22 21 22 21 21 22 22 21 23 24 21 21 21 20 20 20 19 18 18 16 14 13 12 12 11 10 10 10 10 9 8 8 7 6 4 3
21 21 22 22 22 22 22 22 22 21 22 23 23 21 21 20 20 19 19 18 17 15 14 13 13 12 12 11 11 10 10 9 9 8 8 7 6 4
22 21 21 21 21 22 22 22 22 23 22 22 22 22 21 19 19 19 19 17 17 15 14 14 13 13 12 11 10 9 8 9 9 7 7 7 6 5
21 20 20 20 19 19 21 22 22 23 22 22 22 21 20 19 19 18 18 18 17 16 16 15 15 14 13 11 10 9 8 8 8 8 7 6 6 6
20 20 19 19 18 17 16 16 17 19 20 20 19 20 19 18 17 17 17 18 20 15 17 17 14 15 12 11 9 9 8 8 7 6 7 7 5 6
19 19 19 18 18 18 17 16 16 15 15 17 19 18 18 17 17 18 18 18 18 16 16 18 14 15 13 12 10 9 8 8 7 6 5 6 5 5
18 18 18 18 18 18 18 18 18 17 17 16 16 16 16 15 15 15 16 16 15 15 15 18 14 15 13 12 9 8 8 8 7 6 6 5 5 4
18 18 18 18 16 15 17 18 18 16 15 14 14 14 13 13 14 17 19 19 20 19 15 15 14 14 13 12 11 8 8 7 7 6 6 5 4 5
19 18 16 17 15 14 16 17 18 17 18 18 16 18 17 18 16 17 18 21 20 20 14 14 14 13 15 12 11 10 9 8 7 7 6 5 4 4
20 20 18 16 16 14 13 17 18 17 16 20 21 21 20 19 19 17 17 18 19 19 14 14 14 14 14 15 12 10 10 10 9 9 7 5 3 5
20 19 18 16 15 15 15 16 15 16 23 23 23 22 21 20 19 17 17 17 16 15 15 15 16 15 15 14 14 11 10 10 10 10 8 5 3 3
19 17 16 17 17 18 18 17 18 22 23 24 23 22 20 19 18 18 17 16 15 15 14 14 14 14 13 15 14 12 12 11 10 10 9 6 5 5
18 22 21 20 19 19 21 21 21 21 21 22 22 20 19 20 20 19 18 17 18 18 15 14 14 15 15 15 13 13 11 12 10 10 9 6 5 5
28 29 27 24 24 23 23 22 21 21 21 21 21 21 21 20 20 18 16 17 19 20 20 18 15 14 14 14 15 12 11 11 10 10 10 9 6 5
30 31 28 26 25 24 24 23 22 21 21 21 21 21 22 21 21 18 16 18 20 20 20 19 18 18 17 15 12 13 10 11 10 10 10 9 8 6
30 31 30 27 26 25 24 23 23 22 21 22 22 22 22 21 19 18 18 19 20 20 20 19 19 20 22 22 17 11 11 10 10 10 9 8 8 7
31 33 32 30 27 26 25 25 24 24 23 23 23 23 22 20 19 18 18 20 21 21 21 20 19 20 21 22 20 16 12 11 10 10 9 7 6 6
31 30 31 29 28 28 27 28 27 26 25 25 24 23 21 19 18 18 19 19 20 21 22 21 19 17 18 18 21 20 16 12 10 9 7 8 8 7
28 30 30 32 31 32 31 31 29 27 26 24 23 21 20 19 18 19 19 20 21 21 21 19 18 19 20 21 22 21 18 15 10 7 6 6 8 9
29 30 31 33 33 33 34 33 30 27 26 24 23 21 20 18 18 19 19 20 21 22 21 22 20 20 21 21 21 20 19 16 12 10 7 7 8 8